date,time,SUV Intensity [MED/Hr],UV Index,Daily total [MED],Since Last [MED]
20/03/2022,00:05:57,0.000,0.0,0.0,0.0
20/03/2022,00:06:58,0.000,0.0,0.0,0.0
20/03/2022,00:07:57,0.000,0.0,0.0,0.0
20/03/2022,00:08:57,0.000,0.0,0.0,0.0
20/03/2022,00:09:57,0.000,0.0,0.0,0.0
20/03/2022,00:10:58,0.000,0.0,0.0,0.0
20/03/2022,00:11:57,-0.001,0.0,0.0,0.0
20/03/2022,00:12:57,0.000,0.0,0.0,0.0
20/03/2022,00:14:06,0.000,0.0,0.0,0.0
20/03/2022,00:14:57,0.000,0.0,0.0,0.0
20/03/2022,00:15:57,0.000,0.0,0.0,0.0
20/03/2022,00:16:58,0.000,0.0,0.0,0.0
20/03/2022,00:17:58,0.000,0.0,0.0,0.0
20/03/2022,00:18:58,0.000,0.0,0.0,0.0
20/03/2022,00:19:57,0.000,0.0,0.0,0.0
20/03/2022,00:20:58,0.000,0.0,0.0,0.0
20/03/2022,00:21:59,0.000,0.0,0.0,0.0
20/03/2022,00:22:57,0.000,0.0,0.0,0.0
20/03/2022,00:23:57,0.000,0.0,0.0,0.0
20/03/2022,00:25:06,0.000,0.0,0.0,0.0
20/03/2022,00:25:57,0.000,0.0,0.0,0.0
20/03/2022,00:26:58,0.000,0.0,0.0,0.0
20/03/2022,00:28:06,0.000,0.0,0.0,0.0
20/03/2022,00:28:57,0.000,0.0,0.0,0.0
20/03/2022,00:29:57,0.000,0.0,0.0,0.0
20/03/2022,00:31:06,0.000,0.0,0.0,0.0
20/03/2022,00:31:56,0.001,0.0,0.0,0.0
20/03/2022,00:32:58,0.000,0.0,0.0,0.0
20/03/2022,00:33:57,0.001,0.0,0.0,0.0
20/03/2022,00:34:57,0.001,0.0,0.0,0.0
20/03/2022,00:35:58,0.000,0.0,0.0,0.0
20/03/2022,00:36:58,0.000,0.0,0.0,0.0
20/03/2022,00:37:57,0.000,0.0,0.0,0.0
20/03/2022,00:38:57,0.000,0.0,0.0,0.0
20/03/2022,00:39:59,0.000,0.0,0.0,0.0
20/03/2022,00:41:06,0.000,0.0,0.0,0.0
20/03/2022,00:41:58,0.001,0.0,0.0,0.0
20/03/2022,00:42:58,0.000,0.0,0.0,0.0
20/03/2022,00:43:58,0.000,0.0,0.0,0.0
20/03/2022,00:44:58,0.000,0.0,0.0,0.0
20/03/2022,00:45:57,0.000,0.0,0.0,0.0
20/03/2022,00:46:57,0.000,0.0,0.0,0.0
20/03/2022,00:47:57,0.001,0.0,0.0,0.0
20/03/2022,00:48:58,0.000,0.0,0.0,0.0
20/03/2022,00:49:57,0.000,0.0,0.0,0.0
20/03/2022,00:51:07,0.000,0.0,0.0,0.0
20/03/2022,00:51:56,0.001,0.0,0.0,0.0
20/03/2022,00:52:57,0.000,0.0,0.0,0.0
20/03/2022,00:54:06,0.000,0.0,0.0,0.0
20/03/2022,00:54:57,0.000,0.0,0.0,0.0
20/03/2022,00:55:57,0.000,0.0,0.0,0.0
20/03/2022,00:56:58,0.000,0.0,0.0,0.0
20/03/2022,00:57:57,0.000,0.0,0.0,0.0
20/03/2022,00:58:57,0.000,0.0,0.0,0.0
20/03/2022,00:59:58,0.001,0.0,0.0,0.0
20/03/2022,01:00:57,0.000,0.0,0.0,0.0
20/03/2022,01:01:57,0.000,0.0,0.0,0.0
20/03/2022,01:02:57,0.000,0.0,0.0,0.0
20/03/2022,01:03:58,0.000,0.0,0.0,0.0
20/03/2022,01:05:06,0.000,0.0,0.0,0.0
20/03/2022,01:05:57,0.000,0.0,0.0,0.0
20/03/2022,01:07:05,0.001,0.0,0.0,0.0
20/03/2022,01:07:57,0.000,0.0,0.0,0.0
20/03/2022,01:08:58,0.001,0.0,0.0,0.0
20/03/2022,01:09:57,0.000,0.0,0.0,0.0
20/03/2022,01:10:57,0.001,0.0,0.0,0.0
20/03/2022,01:11:58,-0.001,0.0,0.0,0.0
20/03/2022,01:12:58,0.000,0.0,0.0,0.0
20/03/2022,01:13:57,0.000,0.0,0.0,0.0
20/03/2022,01:14:57,0.000,0.0,0.0,0.0
20/03/2022,01:15:58,0.001,0.0,0.0,0.0
20/03/2022,01:16:58,0.001,0.0,0.0,0.0
20/03/2022,01:17:58,0.000,0.0,0.0,0.0
20/03/2022,01:18:57,0.000,0.0,0.0,0.0
20/03/2022,01:19:57,0.000,0.0,0.0,0.0
20/03/2022,01:20:58,0.001,0.0,0.0,0.0
20/03/2022,01:21:57,0.000,0.0,0.0,0.0
20/03/2022,01:22:57,0.000,0.0,0.0,0.0
20/03/2022,01:23:57,0.000,0.0,0.0,0.0
20/03/2022,01:24:58,0.000,0.0,0.0,0.0
20/03/2022,01:25:57,0.001,0.0,0.0,0.0
20/03/2022,01:27:06,0.001,0.0,0.0,0.0
20/03/2022,01:27:57,0.001,0.0,0.0,0.0
20/03/2022,01:28:58,0.000,0.0,0.0,0.0
20/03/2022,01:29:57,0.001,0.0,0.0,0.0
20/03/2022,01:30:57,0.001,0.0,0.0,0.0
20/03/2022,01:31:58,0.001,0.0,0.0,0.0
20/03/2022,01:32:58,0.000,0.0,0.0,0.0
20/03/2022,01:33:57,0.001,0.0,0.0,0.0
20/03/2022,01:34:57,0.001,0.0,0.0,0.0
20/03/2022,01:35:59,0.000,0.0,0.0,0.0
20/03/2022,01:36:57,0.001,0.0,0.0,0.0
20/03/2022,01:37:58,0.002,0.0,0.0,0.0
20/03/2022,01:38:58,0.000,0.0,0.0,0.0
20/03/2022,01:39:57,0.000,0.0,0.0,0.0
20/03/2022,01:41:05,0.001,0.0,0.0,0.0
20/03/2022,01:41:57,0.001,0.0,0.0,0.0
20/03/2022,01:42:57,0.001,0.0,0.0,0.0
20/03/2022,01:43:57,0.001,0.0,0.0,0.0
20/03/2022,01:44:57,0.001,0.0,0.0,0.0
20/03/2022,01:45:58,0.001,0.0,0.0,0.0
20/03/2022,01:46:57,0.001,0.0,0.0,0.0
20/03/2022,01:47:57,0.000,0.0,0.0,0.0
20/03/2022,01:48:57,0.001,0.0,0.0,0.0
20/03/2022,01:49:58,0.002,0.0,0.0,0.0
20/03/2022,01:51:06,0.000,0.0,0.0,0.0
20/03/2022,01:51:57,0.001,0.0,0.0,0.0
20/03/2022,01:52:57,0.001,0.0,0.0,0.0
20/03/2022,01:54:06,0.001,0.0,0.0,0.0
20/03/2022,01:54:58,0.001,0.0,0.0,0.0
20/03/2022,01:55:57,0.001,0.0,0.0,0.0
20/03/2022,01:56:58,0.001,0.0,0.0,0.0
20/03/2022,01:57:58,0.001,0.0,0.0,0.0
20/03/2022,01:58:57,0.002,0.0,0.0,0.0
20/03/2022,01:59:57,0.001,0.0,0.0,0.0
20/03/2022,02:01:06,0.001,0.0,0.0,0.0
20/03/2022,02:01:58,0.001,0.0,0.0,0.0
20/03/2022,02:02:57,0.001,0.0,0.0,0.0
20/03/2022,02:04:06,0.001,0.0,0.0,0.0
20/03/2022,02:04:57,0.001,0.0,0.0,0.0
20/03/2022,02:05:57,0.001,0.0,0.0,0.0
20/03/2022,02:06:57,0.001,0.0,0.0,0.0
20/03/2022,02:07:58,0.000,0.0,0.0,0.0
20/03/2022,02:08:57,0.000,0.0,0.0,0.0
20/03/2022,02:09:58,0.000,0.0,0.0,0.0
20/03/2022,02:10:57,0.001,0.0,0.0,0.0
20/03/2022,02:11:57,0.001,0.0,0.0,0.0
20/03/2022,02:12:58,0.001,0.0,0.0,0.0
20/03/2022,02:13:58,0.001,0.0,0.0,0.0
20/03/2022,02:14:57,0.001,0.0,0.0,0.0
20/03/2022,02:15:58,0.001,0.0,0.0,0.0
20/03/2022,02:16:58,0.001,0.0,0.0,0.0
20/03/2022,02:17:58,0.002,0.0,0.0,0.0
20/03/2022,02:18:57,0.001,0.0,0.0,0.0
20/03/2022,02:19:58,0.001,0.0,0.0,0.0
20/03/2022,02:20:58,0.000,0.0,0.0,0.0
20/03/2022,02:21:57,0.001,0.0,0.0,0.0
20/03/2022,02:22:57,0.001,0.0,0.0,0.0
20/03/2022,02:23:58,0.001,0.0,0.0,0.0
20/03/2022,02:24:58,0.001,0.0,0.0,0.0
20/03/2022,02:25:57,0.000,0.0,0.0,0.0
20/03/2022,02:26:57,0.001,0.0,0.0,0.0
20/03/2022,02:28:05,0.001,0.0,0.0,0.0
20/03/2022,02:28:57,0.001,0.0,0.0,0.0
20/03/2022,02:29:58,0.002,0.0,0.0,0.0
20/03/2022,02:30:57,0.001,0.0,0.0,0.0
20/03/2022,02:31:57,0.000,0.0,0.0,0.0
20/03/2022,02:32:58,0.001,0.0,0.0,0.0
20/03/2022,02:33:58,0.000,0.0,0.0,0.0
20/03/2022,02:34:57,0.000,0.0,0.0,0.0
20/03/2022,02:35:59,0.001,0.0,0.0,0.0
20/03/2022,02:36:58,0.001,0.0,0.0,0.0
20/03/2022,02:38:06,0.002,0.0,0.0,0.0
20/03/2022,02:38:58,0.001,0.0,0.0,0.0
20/03/2022,02:39:57,0.001,0.0,0.0,0.0
20/03/2022,02:41:06,0.002,0.0,0.0,0.0
20/03/2022,02:41:58,0.000,0.0,0.0,0.0
20/03/2022,02:42:57,0.002,0.0,0.0,0.0
20/03/2022,02:44:05,0.001,0.0,0.0,0.0
20/03/2022,02:44:58,0.001,0.0,0.0,0.0
20/03/2022,02:45:57,0.000,0.0,0.0,0.0
20/03/2022,02:46:57,0.001,0.0,0.0,0.0
20/03/2022,02:47:57,0.001,0.0,0.0,0.0
20/03/2022,02:48:57,0.001,0.0,0.0,0.0
20/03/2022,02:49:58,0.001,0.0,0.0,0.0
20/03/2022,02:50:58,0.002,0.0,0.0,0.0
20/03/2022,02:51:57,0.002,0.0,0.0,0.0
20/03/2022,02:52:57,0.001,0.0,0.0,0.0
20/03/2022,02:54:06,0.001,0.0,0.0,0.0
20/03/2022,02:54:58,0.001,0.0,0.0,0.0
20/03/2022,02:55:57,0.001,0.0,0.0,0.0
20/03/2022,02:56:58,0.001,0.0,0.0,0.0
20/03/2022,02:58:58,0.002,0.0,0.0,0.0
20/03/2022,02:59:58,0.001,0.0,0.0,0.0
20/03/2022,03:00:58,0.001,0.0,0.0,0.0
20/03/2022,03:01:58,0.001,0.0,0.0,0.0
20/03/2022,03:02:57,0.001,0.0,0.0,0.0
20/03/2022,03:03:57,0.001,0.0,0.0,0.0
20/03/2022,03:04:58,0.001,0.0,0.0,0.0
20/03/2022,03:05:58,0.001,0.0,0.0,0.0
20/03/2022,03:06:57,0.002,0.0,0.0,0.0
20/03/2022,03:07:58,0.002,0.0,0.0,0.0
20/03/2022,03:08:58,0.002,0.0,0.0,0.0
20/03/2022,03:09:57,0.002,0.0,0.0,0.0
20/03/2022,03:10:57,0.002,0.0,0.0,0.0
20/03/2022,03:11:58,0.002,0.0,0.0,0.0
20/03/2022,03:12:58,0.002,0.0,0.0,0.0
20/03/2022,03:13:57,0.002,0.0,0.0,0.0
20/03/2022,03:15:06,0.003,0.0,0.0,0.0
20/03/2022,03:15:58,0.002,0.0,0.0,0.0
20/03/2022,03:16:58,0.002,0.0,0.0,0.0
20/03/2022,03:18:06,0.001,0.0,0.0,0.0
20/03/2022,03:18:58,0.002,0.0,0.0,0.0
20/03/2022,03:19:57,0.001,0.0,0.0,0.0
20/03/2022,03:20:57,0.002,0.0,0.0,0.0
20/03/2022,03:21:58,0.002,0.0,0.0,0.0
20/03/2022,03:22:58,0.003,0.0,0.0,0.0
20/03/2022,03:23:57,0.002,0.0,0.0,0.0
20/03/2022,03:24:58,0.002,0.0,0.0,0.0
20/03/2022,03:26:01,0.002,0.0,0.0,0.0
20/03/2022,03:26:58,0.002,0.0,0.0,0.0
20/03/2022,03:28:07,0.002,0.0,0.0,0.0
20/03/2022,03:28:57,0.003,0.0,0.0,0.0
20/03/2022,03:29:58,0.003,0.0,0.0,0.0
20/03/2022,03:31:06,0.002,0.0,0.0,0.0
20/03/2022,03:31:57,0.002,0.0,0.0,0.0
20/03/2022,03:32:58,0.002,0.0,0.0,0.0
20/03/2022,03:33:58,0.002,0.0,0.0,0.0
20/03/2022,03:34:57,0.001,0.0,0.0,0.0
20/03/2022,03:35:57,0.002,0.0,0.0,0.0
20/03/2022,03:36:58,0.002,0.0,0.0,0.0
20/03/2022,03:38:06,0.001,0.0,0.0,0.0
20/03/2022,03:38:56,0.001,0.0,0.0,0.0
20/03/2022,03:39:58,0.002,0.0,0.0,0.0
20/03/2022,03:40:57,0.001,0.0,0.0,0.0
20/03/2022,03:41:57,0.001,0.0,0.0,0.0
20/03/2022,03:42:57,0.002,0.0,0.0,0.0
20/03/2022,03:43:57,0.002,0.0,0.0,0.0
20/03/2022,03:44:57,0.002,0.0,0.0,0.0
20/03/2022,03:45:58,0.001,0.0,0.0,0.0
20/03/2022,03:46:58,0.002,0.0,0.0,0.0
20/03/2022,03:47:58,0.002,0.0,0.0,0.0
20/03/2022,03:48:57,0.002,0.0,0.0,0.0
20/03/2022,03:49:58,0.002,0.0,0.0,0.0
20/03/2022,03:50:58,0.003,0.0,0.0,0.0
20/03/2022,03:52:06,0.002,0.0,0.0,0.0
20/03/2022,03:52:58,0.001,0.0,0.0,0.0
20/03/2022,03:53:58,0.000,0.0,0.0,0.0
20/03/2022,03:54:57,0.001,0.0,0.0,0.0
20/03/2022,03:55:58,0.002,0.0,0.0,0.0
20/03/2022,03:56:58,0.002,0.0,0.0,0.0
20/03/2022,03:57:58,0.002,0.0,0.0,0.0
20/03/2022,03:58:58,0.002,0.0,0.0,0.0
20/03/2022,03:59:58,0.002,0.0,0.0,0.0
20/03/2022,04:00:58,0.002,0.0,0.0,0.0
20/03/2022,04:02:06,0.002,0.0,0.0,0.0
20/03/2022,04:02:58,0.003,0.0,0.0,0.0
20/03/2022,04:03:57,0.002,0.0,0.0,0.0
20/03/2022,04:04:58,0.002,0.0,0.0,0.0
20/03/2022,04:05:58,0.002,0.0,0.0,0.0
20/03/2022,04:06:58,0.002,0.0,0.0,0.0
20/03/2022,04:07:59,0.003,0.0,0.0,0.0
20/03/2022,04:08:58,0.002,0.0,0.0,0.0
20/03/2022,04:09:58,0.002,0.0,0.0,0.0
20/03/2022,04:10:57,0.001,0.0,0.0,0.0
20/03/2022,04:12:06,0.001,0.0,0.0,0.0
20/03/2022,04:12:57,0.002,0.0,0.0,0.0
20/03/2022,04:13:58,0.001,0.0,0.0,0.0
20/03/2022,04:15:06,0.002,0.0,0.0,0.0
20/03/2022,04:15:58,0.002,0.0,0.0,0.0
20/03/2022,04:16:57,0.002,0.0,0.0,0.0
20/03/2022,04:17:58,0.002,0.0,0.0,0.0
20/03/2022,04:18:58,0.003,0.0,0.0,0.0
20/03/2022,04:19:58,0.000,0.0,0.0,0.0
20/03/2022,04:20:58,0.002,0.0,0.0,0.0
20/03/2022,04:21:58,0.001,0.0,0.0,0.0
20/03/2022,04:22:57,0.000,0.0,0.0,0.0
20/03/2022,04:23:58,0.001,0.0,0.0,0.0
20/03/2022,04:24:58,0.001,0.0,0.0,0.0
20/03/2022,04:26:06,0.001,0.0,0.0,0.0
20/03/2022,04:26:58,0.001,0.0,0.0,0.0
20/03/2022,04:27:57,0.001,0.0,0.0,0.0
20/03/2022,04:28:58,0.002,0.0,0.0,0.0
20/03/2022,04:29:58,0.002,0.0,0.0,0.0
20/03/2022,04:30:57,0.001,0.0,0.0,0.0
20/03/2022,04:31:58,0.001,0.0,0.0,0.0
20/03/2022,04:32:58,0.001,0.0,0.0,0.0
20/03/2022,04:33:57,0.001,0.0,0.0,0.0
20/03/2022,04:34:57,0.001,0.0,0.0,0.0
20/03/2022,04:36:06,0.002,0.0,0.0,0.0
20/03/2022,04:36:56,0.001,0.0,0.0,0.0
20/03/2022,04:37:57,0.001,0.0,0.0,0.0
20/03/2022,04:38:58,0.001,0.0,0.0,0.0
20/03/2022,04:39:57,0.001,0.0,0.0,0.0
20/03/2022,04:40:57,0.001,0.0,0.0,0.0
20/03/2022,04:41:58,0.000,0.0,0.0,0.0
20/03/2022,04:42:58,0.001,0.0,0.0,0.0
20/03/2022,04:43:57,0.001,0.0,0.0,0.0
20/03/2022,04:44:58,0.001,0.0,0.0,0.0
20/03/2022,04:46:06,0.001,0.0,0.0,0.0
20/03/2022,04:46:56,0.001,0.0,0.0,0.0
20/03/2022,04:47:58,0.001,0.0,0.0,0.0
20/03/2022,04:48:58,0.001,0.0,0.0,0.0
20/03/2022,04:49:58,0.001,0.0,0.0,0.0
20/03/2022,04:50:57,0.002,0.0,0.0,0.0
20/03/2022,04:51:58,0.001,0.0,0.0,0.0
20/03/2022,04:52:58,0.001,0.0,0.0,0.0
20/03/2022,04:54:58,0.001,0.0,0.0,0.0
20/03/2022,04:56:06,0.002,0.0,0.0,0.0
20/03/2022,04:56:58,0.001,0.0,0.0,0.0
20/03/2022,04:57:58,0.001,0.0,0.0,0.0
20/03/2022,04:58:58,0.001,0.0,0.0,0.0
20/03/2022,04:59:57,0.001,0.0,0.0,0.0
20/03/2022,05:00:57,0.001,0.0,0.0,0.0
20/03/2022,05:01:58,0.001,0.0,0.0,0.0
20/03/2022,05:03:00,0.001,0.0,0.0,0.0
20/03/2022,05:03:57,0.001,0.0,0.0,0.0
20/03/2022,05:04:58,0.002,0.0,0.0,0.0
20/03/2022,05:05:58,0.001,0.0,0.0,0.0
20/03/2022,05:06:58,0.001,0.0,0.0,0.0
20/03/2022,05:07:58,0.001,0.0,0.0,0.0
20/03/2022,05:08:57,0.001,0.0,0.0,0.0
20/03/2022,05:09:58,0.001,0.0,0.0,0.0
20/03/2022,05:10:58,0.001,0.0,0.0,0.0
20/03/2022,05:11:58,0.002,0.0,0.0,0.0
20/03/2022,05:12:57,0.003,0.0,0.0,0.0
20/03/2022,05:13:57,0.002,0.0,0.0,0.0
20/03/2022,05:14:58,0.001,0.0,0.0,0.0
20/03/2022,05:15:58,0.001,0.0,0.0,0.0
20/03/2022,05:17:06,0.000,0.0,0.0,0.0
20/03/2022,05:17:58,0.001,0.0,0.0,0.0
20/03/2022,05:18:58,0.001,0.0,0.0,0.0
20/03/2022,05:19:57,0.000,0.0,0.0,0.0
20/03/2022,05:21:50,0.001,0.0,0.0,0.0
20/03/2022,05:22:58,0.001,0.0,0.0,0.0
20/03/2022,05:24:06,0.002,0.0,0.0,0.0
20/03/2022,05:24:58,0.001,0.0,0.0,0.0
20/03/2022,05:25:58,0.002,0.0,0.0,0.0
20/03/2022,05:27:06,0.001,0.0,0.0,0.0
20/03/2022,05:27:58,0.002,0.0,0.0,0.0
20/03/2022,05:28:57,0.001,0.0,0.0,0.0
20/03/2022,05:29:57,0.002,0.0,0.0,0.0
20/03/2022,05:30:58,0.003,0.0,0.0,0.0
20/03/2022,05:31:57,0.001,0.0,0.0,0.0
20/03/2022,05:32:58,0.000,0.0,0.0,0.0
20/03/2022,05:33:58,0.001,0.0,0.0,0.0
20/03/2022,05:34:58,0.003,0.0,0.0,0.0
20/03/2022,05:35:58,0.001,0.0,0.0,0.0
20/03/2022,05:36:57,0.002,0.0,0.0,0.0
20/03/2022,05:38:06,0.001,0.0,0.0,0.0
20/03/2022,05:38:57,0.001,0.0,0.0,0.0
20/03/2022,05:39:57,0.002,0.0,0.0,0.0
20/03/2022,05:40:58,0.002,0.0,0.0,0.0
20/03/2022,05:41:57,0.001,0.0,0.0,0.0
20/03/2022,05:42:57,0.001,0.0,0.0,0.0
20/03/2022,05:43:58,0.002,0.0,0.0,0.0
20/03/2022,05:44:58,0.001,0.0,0.0,0.0
20/03/2022,05:45:58,0.002,0.0,0.0,0.0
20/03/2022,05:46:59,0.002,0.0,0.0,0.0
20/03/2022,05:48:06,0.001,0.0,0.0,0.0
20/03/2022,05:48:56,0.001,0.0,0.0,0.0
20/03/2022,05:49:58,0.002,0.0,0.0,0.0
20/03/2022,05:50:58,0.002,0.0,0.0,0.0
20/03/2022,05:51:58,0.002,0.0,0.0,0.0
20/03/2022,05:52:58,0.002,0.0,0.0,0.0
20/03/2022,05:53:57,0.001,0.0,0.0,0.0
20/03/2022,05:55:07,0.002,0.0,0.0,0.0
20/03/2022,05:55:58,0.002,0.0,0.0,0.0
20/03/2022,05:56:58,0.002,0.0,0.0,0.0
20/03/2022,05:58:07,0.002,0.0,0.0,0.0
20/03/2022,05:58:58,0.002,0.0,0.0,0.0
20/03/2022,05:59:57,0.002,0.0,0.0,0.0
20/03/2022,06:00:58,0.002,0.0,0.0,0.0
20/03/2022,06:01:58,0.002,0.0,0.0,0.0
20/03/2022,06:02:58,0.002,0.0,0.0,0.0
20/03/2022,06:03:58,0.002,0.0,0.0,0.0
20/03/2022,06:04:57,0.002,0.0,0.0,0.0
20/03/2022,06:05:58,0.002,0.0,0.0,0.0
20/03/2022,06:06:58,0.003,0.0,0.0,0.0
20/03/2022,06:07:57,0.003,0.0,0.0,0.0
20/03/2022,06:09:08,0.003,0.0,0.0,0.0
20/03/2022,06:09:58,0.002,0.0,0.0,0.0
20/03/2022,06:10:58,0.003,0.0,0.0,0.0
20/03/2022,06:11:58,0.003,0.0,0.0,0.0
20/03/2022,06:12:58,0.004,0.0,0.0,0.0
20/03/2022,06:13:58,0.004,0.0,0.0,0.0
20/03/2022,06:14:58,0.004,0.0,0.0,0.0
20/03/2022,06:15:58,0.004,0.0,0.0,0.0
20/03/2022,06:16:58,0.004,0.0,0.0,0.0
20/03/2022,06:17:57,0.004,0.0,0.0,0.0
20/03/2022,06:18:58,0.005,0.0,0.0,0.0
20/03/2022,06:19:58,0.005,0.0,0.0,0.0
20/03/2022,06:20:58,0.005,0.0,0.0,0.0
20/03/2022,06:21:58,0.005,0.0,0.0,0.0
20/03/2022,06:22:57,0.005,0.0,0.0,0.0
20/03/2022,06:23:58,0.006,0.0,0.0,0.0
20/03/2022,06:24:58,0.006,0.0,0.0,0.0
20/03/2022,06:26:06,0.006,0.0,0.0,0.0
20/03/2022,06:26:57,0.007,0.0,0.0,0.0
20/03/2022,06:27:58,0.007,0.0,0.0,0.0
20/03/2022,06:28:58,0.008,0.0,0.0,0.0
20/03/2022,06:29:59,0.008,0.0,0.001,0.001
20/03/2022,06:30:57,0.008,0.0,0.001,0.0
20/03/2022,06:31:58,0.008,0.0,0.001,0.0
20/03/2022,06:32:58,0.009,0.0,0.001,0.0
20/03/2022,06:33:58,0.010,0.0,0.001,0.0
20/03/2022,06:34:58,0.011,0.0,0.001,0.0
20/03/2022,06:36:06,0.010,0.0,0.001,0.0
20/03/2022,06:36:58,0.010,0.0,0.002,0.001
20/03/2022,06:37:58,0.011,0.0,0.002,0.0
20/03/2022,06:38:57,0.011,0.0,0.002,0.0
20/03/2022,06:39:58,0.012,0.0,0.002,0.0
20/03/2022,06:40:58,0.013,0.0,0.002,0.0
20/03/2022,06:41:58,0.013,0.0,0.003,0.001
20/03/2022,06:42:58,0.013,0.0,0.003,0.0
20/03/2022,06:43:58,0.014,0.0,0.003,0.0
20/03/2022,06:44:58,0.014,0.0,0.003,0.0
20/03/2022,06:46:06,0.015,0.0,0.004,0.001
20/03/2022,06:47:06,0.016,0.0,0.004,0.0
20/03/2022,06:47:58,0.016,0.0,0.004,0.0
20/03/2022,06:48:58,0.017,0.0,0.004,0.0
20/03/2022,06:49:58,0.017,0.0,0.005,0.001
20/03/2022,06:50:58,0.018,0.0,0.005,0.0
20/03/2022,06:51:58,0.019,0.0,0.005,0.0
20/03/2022,06:52:58,0.019,0.0,0.005,0.0
20/03/2022,06:53:58,0.020,0.0,0.006,0.001
20/03/2022,06:54:58,0.019,0.0,0.006,0.0
20/03/2022,06:55:58,0.021,0.0,0.006,0.0
20/03/2022,06:56:58,0.022,0.0,0.007,0.001
20/03/2022,06:57:58,0.022,0.0,0.007,0.0
20/03/2022,06:58:58,0.023,0.0,0.008,0.001
20/03/2022,06:59:58,0.023,0.0,0.008,0.0
20/03/2022,07:00:58,0.025,0.0,0.008,0.0
20/03/2022,07:02:00,0.025,0.0,0.009,0.001
20/03/2022,07:02:58,0.027,0.0,0.009,0.0
20/03/2022,07:04:07,0.027,0.0,0.01,0.001
20/03/2022,07:04:56,0.027,0.0,0.01,0.0
20/03/2022,07:05:58,0.029,0.0,0.011,0.001
20/03/2022,07:07:06,0.030,0.0,0.011,0.0
20/03/2022,07:07:58,0.031,0.0,0.012,0.001
20/03/2022,07:08:58,0.031,0.0,0.012,0.0
20/03/2022,07:09:58,0.032,0.0,0.013,0.001
20/03/2022,07:10:57,0.033,0.0,0.013,0.0
20/03/2022,07:11:58,0.035,0.0,0.014,0.001
20/03/2022,07:12:58,0.036,0.0,0.014,0.0
20/03/2022,07:13:58,0.036,0.0,0.015,0.001
20/03/2022,07:14:58,0.038,0.0,0.016,0.001
20/03/2022,07:15:58,0.038,0.0,0.016,0.0
20/03/2022,07:16:58,0.040,0.0,0.017,0.001
20/03/2022,07:18:06,0.041,0.0,0.018,0.001
20/03/2022,07:18:58,0.042,0.0,0.018,0.0
20/03/2022,07:19:58,0.043,0.0,0.019,0.001
20/03/2022,07:21:07,0.044,0.0,0.02,0.001
20/03/2022,07:21:58,0.045,0.0,0.02,0.0
20/03/2022,07:23:06,0.047,0.0,0.021,0.001
20/03/2022,07:23:58,0.047,0.0,0.022,0.001
20/03/2022,07:24:58,0.049,0.0,0.023,0.001
20/03/2022,07:25:58,0.050,0.0,0.024,0.001
20/03/2022,07:26:58,0.053,0.0,0.024,0.0
20/03/2022,07:28:06,0.054,0.0,0.025,0.001
20/03/2022,07:28:58,0.054,0.0,0.026,0.001
20/03/2022,07:29:58,0.056,0.0,0.027,0.001
20/03/2022,07:30:58,0.057,0.0,0.028,0.001
20/03/2022,07:31:58,0.059,0.0,0.029,0.001
20/03/2022,07:32:58,0.061,0.0,0.03,0.001
20/03/2022,07:33:58,0.061,0.0,0.031,0.001
20/03/2022,07:34:58,0.063,0.0,0.032,0.001
20/03/2022,07:35:58,0.064,0.0,0.033,0.001
20/03/2022,07:36:58,0.066,0.0,0.034,0.001
20/03/2022,07:38:06,0.068,0.0,0.035,0.001
20/03/2022,07:38:58,0.069,0.0,0.036,0.001
20/03/2022,07:39:58,0.071,0.0,0.038,0.002
20/03/2022,07:40:58,0.073,0.0,0.039,0.001
20/03/2022,07:41:58,0.074,0.0,0.04,0.001
20/03/2022,07:42:58,0.076,0.0,0.041,0.001
20/03/2022,07:43:58,0.078,0.0,0.043,0.002
20/03/2022,07:44:58,0.080,0.0,0.044,0.001
20/03/2022,07:45:58,0.081,0.0,0.045,0.001
20/03/2022,07:46:59,0.083,0.0,0.047,0.002
20/03/2022,07:47:58,0.085,0.0,0.048,0.001
20/03/2022,07:49:06,0.087,0.0,0.05,0.002
20/03/2022,07:49:58,0.088,0.0,0.051,0.001
20/03/2022,07:50:58,0.090,0.0,0.052,0.001
20/03/2022,07:52:07,0.093,0.0,0.054,0.002
20/03/2022,07:52:58,0.093,0.0,0.055,0.001
20/03/2022,07:53:58,0.097,0.0,0.057,0.002
20/03/2022,07:54:58,0.099,0.0,0.059,0.002
20/03/2022,07:55:58,0.101,0.0,0.06,0.001
20/03/2022,07:56:58,0.103,0.0,0.062,0.002
20/03/2022,07:58:07,0.105,0.0,0.064,0.002
20/03/2022,07:58:56,0.107,0.0,0.065,0.001
20/03/2022,07:59:58,0.109,0.0,0.067,0.002
20/03/2022,08:01:00,0.111,0.0,0.069,0.002
20/03/2022,08:02:07,0.114,0.0,0.071,0.002
20/03/2022,08:03:05,0.116,0.0,0.073,0.002
20/03/2022,08:03:57,0.118,0.0,0.075,0.002
20/03/2022,08:04:58,0.120,0.0,0.077,0.002
20/03/2022,08:05:58,0.123,0.0,0.079,0.002
20/03/2022,08:06:58,0.125,0.0,0.081,0.002
20/03/2022,08:07:58,0.127,0.0,0.083,0.002
20/03/2022,08:08:58,0.130,0.0,0.085,0.002
20/03/2022,08:09:58,0.132,0.0,0.087,0.002
20/03/2022,08:10:58,0.135,0.0,0.09,0.003
20/03/2022,08:11:58,0.137,0.0,0.092,0.002
20/03/2022,08:12:58,0.140,0.0,0.094,0.002
20/03/2022,08:13:58,0.142,0.0,0.096,0.002
20/03/2022,08:14:58,0.145,0.0,0.099,0.003
20/03/2022,08:15:58,0.148,0.0,0.101,0.002
20/03/2022,08:16:58,0.149,0.0,0.104,0.003
20/03/2022,08:17:58,0.153,0.0,0.106,0.002
20/03/2022,08:18:58,0.156,0.0,0.109,0.003
20/03/2022,08:20:06,0.160,0.0,0.112,0.003
20/03/2022,08:20:58,0.162,0.0,0.114,0.002
20/03/2022,08:21:58,0.165,0.0,0.117,0.003
20/03/2022,08:23:06,0.168,0.0,0.12,0.003
20/03/2022,08:23:58,0.171,0.0,0.122,0.002
20/03/2022,08:24:58,0.174,0.0,0.125,0.003
20/03/2022,08:25:58,0.175,0.0,0.128,0.003
20/03/2022,08:26:58,0.179,0.0,0.131,0.003
20/03/2022,08:27:58,0.183,0.0,0.134,0.003
20/03/2022,08:28:49,0.185,0.0,0.137,0.003
20/03/2022,08:29:59,0.189,0.0,0.14,0.003
20/03/2022,08:30:58,0.191,0.0,0.144,0.004
20/03/2022,08:31:58,0.195,0.0,0.147,0.003
20/03/2022,08:32:58,0.199,0.0,0.15,0.003
20/03/2022,08:33:58,0.201,0.0,0.153,0.003
20/03/2022,08:34:58,0.205,0.0,0.157,0.004
20/03/2022,08:35:58,0.207,0.0,0.16,0.003
20/03/2022,08:36:58,0.212,0.0,0.164,0.004
20/03/2022,08:37:58,0.214,0.0,0.167,0.003
20/03/2022,08:38:58,0.218,1.0,0.171,0.004
20/03/2022,08:39:59,0.221,1.0,0.175,0.004
20/03/2022,08:40:58,0.224,1.0,0.178,0.003
20/03/2022,08:41:58,0.229,1.0,0.182,0.004
20/03/2022,08:43:15,0.233,1.0,0.187,0.005
20/03/2022,08:44:58,0.239,1.0,0.194,0.007
20/03/2022,08:45:58,0.242,1.0,0.198,0.004
20/03/2022,08:46:58,0.246,1.0,0.202,0.004
20/03/2022,08:47:58,0.249,1.0,0.206,0.004
20/03/2022,08:48:58,0.253,1.0,0.21,0.004
20/03/2022,08:49:58,0.256,1.0,0.214,0.004
20/03/2022,08:51:08,0.261,1.0,0.219,0.005
20/03/2022,08:51:57,0.263,1.0,0.223,0.004
20/03/2022,08:52:58,0.267,1.0,0.227,0.004
20/03/2022,08:54:07,0.271,1.0,0.233,0.006
20/03/2022,08:54:59,0.274,1.0,0.237,0.004
20/03/2022,08:55:58,0.277,1.0,0.241,0.004
20/03/2022,08:57:06,0.282,1.0,0.246,0.005
20/03/2022,08:57:58,0.286,1.0,0.25,0.004
20/03/2022,08:58:58,0.289,1.0,0.255,0.005
20/03/2022,09:00:06,0.294,1.0,0.261,0.006
20/03/2022,09:00:56,0.298,1.0,0.265,0.004
20/03/2022,09:01:58,0.301,1.0,0.27,0.005
20/03/2022,09:02:58,0.305,1.0,0.275,0.005
20/03/2022,09:03:58,0.309,1.0,0.28,0.005
20/03/2022,09:04:58,0.313,1.0,0.285,0.005
20/03/2022,09:05:58,0.317,1.0,0.291,0.006
20/03/2022,09:07:07,0.321,1.0,0.297,0.006
20/03/2022,09:07:57,0.324,1.0,0.301,0.004
20/03/2022,09:08:58,0.329,1.0,0.307,0.006
20/03/2022,09:10:06,0.334,1.0,0.313,0.006
20/03/2022,09:10:59,0.337,1.0,0.318,0.005
20/03/2022,09:11:58,0.341,1.0,0.324,0.006
20/03/2022,09:12:59,0.345,1.0,0.329,0.005
20/03/2022,09:13:58,0.349,1.0,0.335,0.006
20/03/2022,09:14:58,0.354,1.0,0.341,0.006
20/03/2022,09:15:58,0.358,1.0,0.347,0.006
20/03/2022,09:17:06,0.361,1.0,0.354,0.007
20/03/2022,09:17:58,0.364,1.0,0.359,0.005
20/03/2022,09:18:58,0.368,1.0,0.365,0.006
20/03/2022,09:19:58,0.373,1.0,0.371,0.006
20/03/2022,09:20:58,0.377,1.0,0.377,0.006
20/03/2022,09:21:58,0.383,1.0,0.384,0.007
20/03/2022,09:22:59,0.386,1.0,0.39,0.006
20/03/2022,09:24:00,0.392,1.0,0.397,0.007
20/03/2022,09:24:58,0.396,1.0,0.403,0.006
20/03/2022,09:25:58,0.402,1.0,0.41,0.007
20/03/2022,09:27:06,0.406,1.0,0.417,0.007
20/03/2022,09:27:58,0.408,1.0,0.423,0.006
20/03/2022,09:28:59,0.414,1.0,0.43,0.007
20/03/2022,09:29:58,0.418,1.0,0.437,0.007
20/03/2022,09:30:58,0.422,1.0,0.444,0.007
20/03/2022,09:31:58,0.426,1.0,0.451,0.007
20/03/2022,09:32:58,0.420,1.0,0.458,0.007
20/03/2022,09:33:59,0.431,1.0,0.465,0.007
20/03/2022,09:34:58,0.435,1.0,0.473,0.008
20/03/2022,09:35:58,0.436,1.0,0.48,0.007
20/03/2022,09:36:58,0.445,1.0,0.487,0.007
20/03/2022,09:37:58,0.449,1.0,0.495,0.008
20/03/2022,09:38:58,0.457,1.0,0.502,0.007
20/03/2022,09:40:06,0.459,1.0,0.511,0.009
20/03/2022,09:40:58,0.463,1.0,0.518,0.007
20/03/2022,09:41:58,0.465,1.0,0.525,0.007
20/03/2022,09:42:58,0.409,1.0,0.533,0.008
20/03/2022,09:43:58,0.472,1.0,0.541,0.008
20/03/2022,09:44:58,0.475,1.0,0.548,0.007
20/03/2022,09:45:58,0.485,1.0,0.556,0.008
20/03/2022,09:46:58,0.494,1.0,0.565,0.009
20/03/2022,09:47:59,0.500,1.0,0.573,0.008
20/03/2022,09:48:58,0.500,1.0,0.581,0.008
20/03/2022,09:50:06,0.506,1.0,0.591,0.01
20/03/2022,09:50:58,0.512,1.0,0.598,0.007
20/03/2022,09:51:58,0.514,1.0,0.607,0.009
20/03/2022,09:52:58,0.510,1.0,0.615,0.008
20/03/2022,09:53:59,0.504,1.0,0.624,0.009
20/03/2022,09:54:58,0.507,1.0,0.632,0.008
20/03/2022,09:55:58,0.526,1.0,0.64,0.008
20/03/2022,09:56:58,0.540,1.0,0.649,0.009
20/03/2022,09:57:58,0.552,1.0,0.659,0.01
20/03/2022,09:58:59,0.546,1.0,0.668,0.009
20/03/2022,10:00:06,0.560,1.0,0.678,0.01
20/03/2022,10:00:58,0.559,1.0,0.686,0.008
20/03/2022,10:01:58,0.564,1.0,0.696,0.01
20/03/2022,10:02:58,0.570,1.0,0.705,0.009
20/03/2022,10:03:58,0.574,1.0,0.715,0.01
20/03/2022,10:04:59,0.577,1.0,0.724,0.009
20/03/2022,10:06:00,0.586,1.0,0.734,0.01
20/03/2022,10:06:58,0.590,1.0,0.744,0.01
20/03/2022,10:07:59,0.589,1.0,0.753,0.009
20/03/2022,10:08:58,0.595,1.0,0.763,0.01
20/03/2022,10:10:06,0.599,1.0,0.774,0.011
20/03/2022,10:10:59,0.601,1.0,0.783,0.009
20/03/2022,10:11:58,0.607,1.0,0.793,0.01
20/03/2022,10:12:58,0.614,1.0,0.803,0.01
20/03/2022,10:13:59,0.620,1.0,0.814,0.011
20/03/2022,10:14:58,0.622,1.0,0.824,0.01
20/03/2022,10:15:58,0.625,1.0,0.834,0.01
20/03/2022,10:16:58,0.630,1.0,0.845,0.011